DECAYED

DELTA 1 DEB, 10204 (Decayed)

Orbit data source: Space-Track

DELTA 1 DEB, 10204 was space debris in LEO originally from a launch on Thu, 14 Jul 1977 UTC launched from the Air Force Eastern Test Range (AFETR). Debris objects in space refer to the collection of defunct objects orbiting the Earth. Examples of debris include non-operational satellites, rocket bodies, and fragments generated from explosions, collisions, or faulty payload assembly.

Not visible in the next 10 days
Identifier
10204, 1977-065AH
Orbit
Decayed
Country
Flag of USUS
Related business
Manufacturer
Unknown
Mission
Decayed spacecraft
Bus & Motor
Unknown
Mass
Unknown
Launch date (UTC)
1977-07-14 (48 years ago)
Launch vehicle
Unknown
Launch site
Air Force Eastern Test Range (AFETR)
Object type
Payload
Rocket body
Debris
Shape & HBR
Unknown shape, 0.1 m
Radar Cross Section
Small (<0.1 m²)

Expand to show TLE details & history
Last TLE update: 8 months ago

TLE from 8 months ago
0 DELTA 1 DEB
1 10204U 77065AH  25054.53507434  .07430110  22083+0  11302-1 0  9997
2 10204  28.7982 150.3935 0018768  25.5685 334.5863 16.10970588407808
Epoch: 2025-02-23T12:50Z
TLE epoch observation values (Epoch: 2025-02-23T12:50:30.422Z)
Latitude
-0.00004°
Longitude
164.10039°
Altitude
231.188 km
Speed
7.777 km/s
True Right ascension
10h 01m 34s
True Declination
0° 00' 00"
Sunlit
Object was in full shadow at epoch
Visualization orbit readout
Latitude
Unknown
Longitude
Unknown
Altitude
Unknown
Speed
Unknown
Apparent Right ascension
Unknown
Apparent Declination
Unknown
Sunlit
N/A
Visualization observer readout
Local Sidereal Time
20:10:53
Azimuth
Unknown
Elevation
Unknown
Doppler factor
Unknown
Orbital elements
Apogee altitude
260.961 km
Perigee altitude
236.087 km
Semi-major axis
6,626.661 km
Eccentricity
0.00188
Inclination
28.7982°
RAAN
150.3935°
Arg. of periapsis
25.5685°
True anomaly
334.49381°
Mean anomaly
334.5863°
Eccentric anomaly
334.54007°
Mean motion
4.02347 °/min
Orbital period
89.47 mins
BSTAR
0.011302
Loading maneuver chart data...
Computing Atmospheric mass density...

Documentation

Showing up to 5 results
|